Terug naar catalogus

STARLINK-34525

ActiefCommunicatieVLEO
NORAD 64678·PAYLOAD·🇺🇸 United States

Gelanceerd Jun 28, 2025 vanaf Cape Canaveral Space Force Station

Loading…

Volgende Passages (komende 24 uur)

TLE

VersSource: CelesTrak SupGP

Epoch: Sep 15, 2026, 03:52 UTC

1 64678C 25139Q   26258.16159722  .00041976  00000+0  12397-2 0  2585
2 64678  53.1597 324.4204 0001280  93.3225  96.7112 15.34382553    13

Volg STARLINK-34525 in realtime met AllMySat

Download on the App Store